Location: Chandler Mine
(32.2507°N, 83.6085°W)
Time: 05:14:29
(UTC+00:00)

Daily predictions for brighter satellites

Satellite Brightness Start Highest point End
(mag) Time Altitude Azimuth Time Altitude Azimuth Time Altitude Azimuth
Aureole 3 3.3 00:01:00 10° NNE 00:03:56 32° E 00:06:39 10° SSE
Cosmos 1939 Rocket 3.8 00:00:08 10° S 00:04:09 52° W 00:08:10 10° NNW
ERS-2 2.5 00:02:46 10° N 00:06:22 63° WNW 00:09:56 10° SSW
Okean 1-7 Rocket 4.3 00:02:13 10° SSW 00:06:40 58° W 00:11:10 10° N
BREEZE-M DEB (TANK) 2.0 00:04:45 10° NW 00:07:07 45° NE 00:07:22 42° ENE
GOES 2 Rocket 4.5 00:04:18 10° WSW 00:10:32 63° S 00:16:18 21° E
Cosmos 44 3.1 00:06:05 10° SSW 00:10:39 72° ESE 00:14:12 18° NE
Nadezhda 4 Rocket 4.2 00:05:51 10° S 00:12:07 76° W 00:18:21 10° N
PSLV R/B 4.3 00:11:52 10° N 00:16:03 67° WNW 00:20:12 10° SSW
Cosmos 1626 Rocket 3.4 00:12:13 10° S 00:16:34 88° E 00:20:59 10° N
Cosmos 1328 4.0 00:12:44 10° SSE 00:16:35 46° E 00:18:15 28° NE
CZ-4 R/B 1.3 00:12:53 10° SSE 00:17:01 74° ENE 00:21:05 10° N
ARGOS 3.5 00:14:06 10° SE 00:19:02 40° ENE 00:24:02 10° N
NOSS 2-1 (E) 2.8 00:17:02 10° SSW 00:20:37 86° ESE 00:21:39 41° NNE
Lacrosse 5 3.0 00:18:05 10° NNW 00:22:02 25° NE 00:22:02 25° NE
Hubble Space Telescope 1.3 00:24:58 10° WSW 00:28:59 49° S 00:30:03 38° SE
CSL-04 Debris 4.2 00:24:44 10° SSE 00:29:56 52° ENE 00:35:09 10° N
Cosmos 1689 Rocket 3.9 00:27:27 10° NNW 00:29:57 30° WNW 00:32:28 10° SW
Cosmos 990 Rocket 4.0 00:27:15 10° SSW 00:32:29 82° WNW 00:36:47 15° NNE
CZ-2C R/B 2.7 00:31:47 17° NNE 00:36:07 62° E 00:41:39 10° S
Cosmos 1758 Rocket 3.6 00:34:18 10° S 00:38:18 54° ESE 00:38:18 54° ESE
Okean-O 2.9 00:34:49 10° S 00:39:13 69° WSW 00:43:38 10° NNW
Cosmos 858 Rocket 4.4 00:43:39 10° SSW 00:48:55 81° ESE 00:50:29 47° NNE
Cosmos 2026 Rocket 3.9 00:43:04 10° S 00:49:07 85° W 00:55:19 10° N
Meteor 2-19 Rocket 4.3 00:46:32 10° S 00:52:38 76° E 00:57:05 20° NNE
H-2A R/B 2.5 00:50:17 10° S 00:55:07 57° W 01:00:04 10° NNW
Meteor 1-11 4.1 00:52:44 10° S 00:58:29 86° E 01:00:49 38° N
YAOGAN 1 3.9 00:55:33 10° SSW 00:59:34 39° W 01:03:38 10° NNW
Helios 1A Rocket 3.9 00:56:49 10° S 01:00:47 47° W 01:04:48 10° NNW
Cosmos 1898 Rocket 4.3 00:56:52 10° SW 01:01:58 50° WNW 01:05:07 22° N
Cosmos 923 Rocket 4.0 00:57:32 10° NNW 01:02:53 80° WSW 01:06:37 20° S
OAO 1 4.5 00:57:27 10° WNW 01:02:57 72° N 01:02:57 72° N
Cosmos 158 Rocket 4.3 01:00:44 10° NNW 01:06:04 67° WSW 01:11:24 10° S
Cosmos 2098 Rocket 4.4 01:02:19 10° S 01:09:01 75° W 01:16:28 10° N
Cosmos 2278 Rocket 2.3 01:03:25 10° SSW 01:08:10 61° SSE 01:08:10 61° SSE
Cosmos 1680 Rocket 4.2 01:04:55 10° NNW 01:08:26 44° NNW 01:08:26 44° NNW
Centaur AC-146 4.3 01:08:18 10° SSW 01:09:50 18° S 01:09:50 18° S
USA 267 3.7 01:13:39 37° NNE 01:15:58 55° NW 01:22:18 10° WSW
CSL-04 Rocket 4.3 01:15:40 10° S 01:20:52 53° W 01:26:10 10° NNW
CZ-3A R/B 4.2 09:21:30 58° S 09:21:30 58° S 09:31:45 10° ESE
USA 267 4.1 09:36:58 10° SE 09:40:55 40° SSE 09:40:55 40° SSE
SJ 16-02 3.5 09:54:02 23° ESE 09:54:02 23° ESE 09:56:16 10° SE
Atlas Centaur 2 3.2 09:56:30 54° S 09:57:15 56° SSE 10:05:27 10° E
Cosmos 1844 Rocket 3.8 09:59:54 36° SSE 09:59:54 36° SSE 10:03:08 10° SSE
ATLAS 3B CENTAUR R/B 4.1 09:56:48 37° SSW 09:57:44 38° SSW 10:11:07 10° SE
Cosmos 2237 Rocket 3.6 10:06:45 10° S 10:11:53 37° ESE 10:17:02 10° NE
Cosmos 2333 Rocket 4.2 10:20:17 16° N 10:20:17 16° N 10:21:25 10° N
Cosmos 2219 Rocket 4.0 10:20:31 19° N 10:20:31 19° N 10:22:01 10° N
SL-4 R/B 4.0 10:17:09 22° SE 10:17:11 22° SE 10:20:08 10° ENE
OAO 3 Rocket 4.5 10:20:03 31° SSE 10:20:03 31° SSE 10:22:54 10° SE
H-2A R/B 4.3 10:14:40 10° SSE 10:15:42 17° S 10:15:42 17° S
Cosmos 1455 Rocket 3.3 10:26:45 10° S 10:31:05 66° E 10:35:23 10° NNE
Delta 142 4.3 10:33:17 41° SSE 10:33:17 41° SSE 10:37:36 10° E
IRIDIUM 104 4.1 10:30:13 10° S 10:35:25 81° W 10:40:39 10° N
COSMOS 2428 3.8 10:38:26 28° NNW 10:38:26 28° NNW 10:41:23 10° N
USA 276 4.0 10:37:31 30° E 10:37:31 30° E 10:39:23 10° ESE
ATLAS CENTAUR R/B 4.1 10:35:56 10° SSE 10:38:27 17° ESE 10:40:55 10° ENE
ERS-2 4.1 10:35:44 10° SE 10:38:52 28° ENE 10:41:48 11° NNE
Cosmos 1953 3.3 10:37:37 10° SSE 10:41:25 45° E 10:45:13 10° NNE
IRIDIUM 114 4.2 10:39:23 10° S 10:44:32 64° W 10:49:44 10° N
Cosmos 1980 3.7 10:38:59 10° SSW 10:44:38 82° ESE 10:50:18 10° NNE
Meteor PRIRODA 4.1 10:42:30 10° NNE 10:46:06 60° E 10:49:40 10° S
Meteor 2-5 Rocket 4.5 10:48:06 33° SW 10:48:06 33° SW 10:51:51 10° SSW
CZ-4B R/B 1.5 10:47:16 10° SSE 10:50:22 73° SE 10:50:22 73° SE
OAO 1 Rocket 4.4 10:50:46 50° WNW 10:51:59 69° N 10:57:18 10° ENE
Cosmos 540 Rocket 3.3 10:47:39 10° SSW 10:52:45 88° WNW 10:57:53 10° NNE
MOS 1 Rocket 4.2 10:47:50 10° SSE 10:52:48 52° ENE 10:57:31 10° N
deb Chang Zheng 4 3.3 10:49:00 10° N 10:53:14 76° WNW 10:57:27 10° SSW
IRIDIUM 103 4.4 10:48:40 10° SSW 10:53:42 51° W 10:58:47 10° N
USA 307 4.3 10:50:28 10° SSW 10:54:22 37° SE 10:58:16 10° ENE
Haruka 3.7 10:54:44 39° W 10:56:47 81° S 11:12:32 10° E
Cosmos 2034 Rocket 4.1 10:51:45 10° S 10:58:05 80° E 11:04:28 10° N
BREEZE-M DEB (TANK) 2.6 10:58:46 42° N 10:58:46 42° N 11:02:58 10° NE
Cosmos 1461 4.4 11:01:19 25° NNW 11:01:19 25° NNW 11:04:05 10° N
CZ-2C R/B 1.1 10:59:52 52° WSW 11:00:50 87° SSE 11:04:49 10° ENE
ADEOS 4.4 10:57:37 10° N 11:08:37 - SW 11:00:58 30° NW
Meteor 2-10 4.4 10:57:36 10° SSW 11:03:00 44° WNW 11:08:18 10° N
USA 308 3.9 10:59:01 10° SSW 11:03:03 45° SE 11:07:06 10° NE
USA 305 3.7 10:59:26 10° SSW 11:03:32 50° SE 11:07:38 10° NE
Cosmos 990 Rocket 3.8 10:59:51 17° NNW 11:03:55 84° WSW 11:09:02 10° SSE
OAO 2 Rocket 3.4 11:04:20 38° WNW 11:06:01 62° N 11:10:54 10° E
Nadezhda 4 Rocket 4.2 11:06:33 10° N 11:12:39 71° E 11:18:44 10° SSE
SL-24 R/B 4.4 11:09:38 10° SSW 11:13:07 36° W 11:13:26 35° W
NOSS 3-2 (A) 3.9 11:08:11 10° SSW 11:13:27 57° ESE 11:19:18 10° NE
Meteor 1-16 Rocket 4.3 11:08:42 10° S 11:14:32 89° E 11:20:29 10° N
Cosmos 1892 Rocket 3.8 11:12:42 22° NNW 11:15:13 45° W 11:19:24 10° SSW
USA 306 3.2 11:11:08 10° SSW 11:15:20 66° SE 11:19:33 10° NE
OAO 3 Copernicus 4.3 11:14:13 22° WSW 11:17:27 79° SSE 11:22:31 10° ENE
SWAS 4.5 11:16:11 10° SSW 11:20:25 83° ESE 11:24:42 10° NNE
Cosmos 1340 4.2 11:18:57 10° N 11:22:29 38° E 11:25:59 10° SSE
CZ-3A R/B 4.4 11:14:15 17° W 11:22:49 36° SSW 11:30:03 10° SE
SAR-Lupe-4 3.5 11:20:18 10° SSE 11:23:52 89° E 11:27:28 10° NNW
COSMO-SKYMED 1 2.9 11:20:08 10° S 11:24:17 44° W 11:28:25 10° NNW
Meteor 2-13 Rocket 4.4 11:19:49 10° N 11:26:00 87° W 11:32:08 10° S
Cosmos 841 Rocket 3.7 11:22:05 10° SW 11:26:55 42° WNW 11:31:48 10° N
Cosmos 1703 4.0 11:23:52 10° N 11:27:42 54° E 11:31:31 10° SSE
CZ-4B R/B 3.5 11:26:58 10° NNW 11:30:04 27° WNW 11:33:14 10° SW
SJ 16-02 2.9 11:31:06 17° WSW 11:31:06 17° WSW 11:33:34 10° SW
SAR-Lupe-1 4.0 11:31:05 10° S 11:34:37 65° W 11:38:11 10° NNW
Cosmos 1898 Rocket 3.7 11:29:47 10° NNW 11:34:44 48° WSW 11:39:40 10° S
Lacrosse 4 Rocket 1.3 11:33:06 10° SSW 11:37:14 76° WNW 11:41:31 10° NNE
Lacrosse 5 rocket 3.5 11:36:07 10° N 11:38:39 17° NE 11:41:07 10° E
Chandra Rocket (1) 2.1 11:35:58 14° WSW 11:39:17 44° S 11:41:44 10° ESE
H-2A R/B 3.4 11:36:12 10° NNW 11:39:25 29° WNW 11:42:41 10° SW
Cosmos 1570 Rocket 4.4 11:36:22 10° SW 11:41:12 39° WNW 11:46:05 10° N
BREEZE M DEB (TANK) 2.4 11:41:00 21° WNW 11:41:36 24° NNW 11:43:53 10° NNE
Cosmos 1544 Rocket 4.4 11:38:28 10° SW 11:42:05 26° WNW 11:45:43 10° NNW
SL-16 R/B 2.3 11:37:39 10° SSW 11:43:17 82° ESE 11:48:58 10° NNE
Atlas Centaur 2 3.2 11:39:07 11° W 11:46:58 79° S 11:55:32 10° E
GPS 2-04 Rocket1 3.5 11:45:43 14° W 11:49:01 42° SSW 11:52:58 10° SE
Cosmos 1400 Rocket 3.2 11:45:34 10° SSW 11:49:23 41° W 11:53:17 10° N
CENTAUR R/B 2.7 11:45:41 10° SSW 11:51:07 70° ESE 11:57:30 10° NE
Meteor 1-21 Rocket 4.4 11:45:39 10° NNW 11:51:12 52° W 11:56:51 10° SSW
Cosmos 2278 Rocket 2.3 11:46:27 10° NNW 11:52:02 62° WSW 11:57:36 10° S
CZ-4B R/B 3.7 11:47:20 10° NNE 11:52:58 67° ESE 11:58:28 10° S
CZ-2C R/B 3.2 11:49:14 10° SSE 11:54:19 61° ENE 11:59:30 10° N
Cosmos 1606 Rocket 4.3 11:51:03 10° S 11:55:15 57° E 11:59:29 10° NNE
Cosmos 1328 3.7 11:51:57 10° N 11:55:54 89° WSW 11:59:47 10° S
